Regional Weather Roundup
Issued by NWS Newport/Morehead, NC

Current Version | Previous Version | Graphics & Text | Print | Product List | Glossary On
Versions: 1 2 3 4 5 6 7 8 9 10 11 12 13 14 15 16 17 18 19 20 21 22 23 24 25 26 27 28 29 30 31 32 33 34 35 36 37 38 39 40 41 42 43 44 45 46 47 48 49 50
000
ASUS42 KMHX 262224
RWRMHX
WEATHER ROUNDUP FOR EASTERN NORTH CAROLINA
NATIONAL WEATHER SERVICE NEWPORT/MOREHEAD CITY NC
600 PM EDT SUN APR 26 2015

NOTE: "FAIR" INDICATES FEW OR NO CLOUDS BELOW 12,000 FEET
WITH NO SIGNIFICANT WEATHER AND/OR OBSTRUCTIONS TO VISIBILITY

NCZ015>017-031-032-045>047-102-103-262300-
NORTH COAST

CITY           SKY/WX    TMP DP  RH WIND       PRES   REMARKS
EDENTON        PTSUNNY   55  46  71 N6        29.70S
ELIZABETH CITY PTSUNNY   54  43  66 N9        29.70R
KITTY HAWK     CLOUDY    53  36  53 N8        29.68R
MANTEO         CLOUDY    54  36  50 NE16      29.69R

$$

NCZ045>047-081-094-103-104-262300-
CENTRAL COAST

CITY           SKY/WX    TMP DP  RH WIND       PRES   REMARKS
FRISCO         CLOUDY    50  45  83 N9G21     29.66R
SWANQUARTER      N/A     52 N/A N/A N2G13     29.68R

$$

NCZ095-097-098-100-101-262300-
SOUTHERN COAST

CITY           SKY/WX    TMP DP  RH WIND       PRES   REMARKS
BEAUFORT       CLOUDY    55  49  80 N12       29.68R
CEDAR ISLAND     N/A     54 N/A N/A N21       29.74R
JACKSONVILLE   CLOUDY    55  48  77 N12       29.69R
PINEY ISLAND   CLOUDY   N/A N/A N/A N13       29.68R
WILMINGTON     CLOUDY    58  50  75 N8        29.68R


$$

NCZ011>013-027>030-043-044-078>080-089-090>093-098-262300-
COASTAL PLAIN

CITY           SKY/WX    TMP DP  RH WIND       PRES   REMARKS
AHOSKIE        MOSUNNY   54  46  73 N3        29.71R
CLINTON        CLOUDY    54  50  84 N7        29.71R
ELIZABETHTOWN  CLOUDY    55  49  80 N3        29.69S
GOLDSBORO      CLOUDY    54  48  81 N6        29.69R
GREENVILLE     PTSUNNY   54  46  76 N6        29.75R
HAVELOCK       CLOUDY    54  47  77 N13       29.70R
KENANSVILLE    CLOUDY    53  47  81 N7        29.72R
KINSTON        CLOUDY    54  48  82 N9        29.71R
NEW BERN       CLOUDY    54  47  77 N12       29.71R
RICHLANDS      CLOUDY    54  46  76 N8        29.71R
ROCKY MOUNT    CLOUDY    53  46  77 N12       29.73R
WASHINGTON     PTSUNNY   52  46  79 N9        29.71R
WHITEVILLE     CLOUDY    58  51  77 NE7       29.66S

$$

AMZ130-135-150-152-154-156-158-170-250-252-270-ANZ085-086-088-633-658-670-262300-
MARINE OBSERVATIONS

STATION/POSITION TIME  TEMP    WIND        PRES    WAVE   SWELL
                       AIR SEA DIR/SP/G            HT/PER HT/PER
                 (UTC) (F)     (DEG/KT/KT) (MB)    (FT/S) (FT/S)
CHESAPEAKE LIGHT 2200   51      20/  6/  7 1006.2
64 E VA BEACH    2150   54 57  360/ 17/ 19 1003.8    5/ 6   2/ 8
DUCK             2200   53 54  360/ 14/ 17 1004.0
2 E DUCK         2111      55                N/A     5/ 6
10 NE DUCK       NOT AVBL
OREGON INLET     2200   52 55  350/ 14/ 19 1004.7
HATTERAS CG      2100   53 63  350/ 21/ 25 1003.4
DIAMOND BUOY     2150   55 77  360/ 21/ 25 1003.6    8/10
CAPE LOOKOUT     2200   54     360/ 12/ 15 1004.6
BEAUFORT LAB     2100   54 62  360/ 11/ 18 1003.6
27 SE WRIGHTSVLE 2200   57 72   30/ 14/ 17   N/A
5 SE WRIGHTSVLE  2108   60 65   30/ 16/ 21 1003.9
225 S CAPE HAT   2150   72 71  300/ 14/ 17 1002.6    8/ 8   7/ 8
41 SE CHARLESTON 2150   74 72  220/ 16/ 17 1001.2    5/ 6   2/11

$$



USA.gov is the U.S. government's official web portal to all federal, state and local government web resources and services.